RH
63 61 65 66 69 68 66 53 41 33 30 26 21 19 15 18 23 29 34 37 38 42
57 57 63 67 65 66 64 50 40 34 29 26 21 17 13 17 14 18 21 24 24 22
50 47 50 54 53 53 50 41 35 29 28 28 27 24 21 23 21 18 21 21 21 18
47 49 48 48 48 47 46 37 36 34 32 33 30 29 30 30 30 26 28 30 30 31
47 47 48 47 49 51 54 48 44 42 36 36 35 34 33 31 38 36 40 41 37 36
45 48 49 53 52 56 55 52 47 45 41 35 34 37 39 40 37 40 43 45 43 39
46 50 52 55 56 59 58 58 55 49 50 46 39 39 41 43 43 46 49 47 47 44
57 59 61 62 62 61 65 64 67 67 59 48 50 50 47 45 48 49 51 50 49 51
66 72 74 72 66 75 76 75 73 72 77 66 52 56 54 53 54 56 55 55 57 53
65 72 75 82 92 77 81 79 77 81 83 81 62 58 62 60 62 60 60 58 58 58
61 67 73 78 77 81 77 81 76 77 86 93 82 66 66 71 69 71 65 63 60 58
61 67 70 69 67 67 70 71 73 74 76 77 80 76 69 74 82 81 74 68 66 62
65 65 62 56 54 56 59 63 70 72 77 76 76 75 73 78 95 90 83 72 66 55
51 52 50 48 46 53 60 66 76 82 84 82 82 85 81 86 96 92 87 75 67 60